Location: Austin
(30.3000°N, 97.7500°W)
Time: 05:14:39
(UTC-06:00)

YAOGAN 1 - Pass Details

Date: 21 November 2024
Orbit: 609 x 611 km, 97.8° (Epoch: 06 December)

Event Time Altitude Azimuth Distance (km) Brightness Sun altitude
Rises 18:33:10 0° 139° (SE) 2,859 5.7 -13.3°
Reaches altitude 10° 18:35:39 10° 126° (SE) 1,958 4.8 -13.9°
Maximum altitude 18:39:04 24° 72° (ENE) 1,268 3.5 -14.6°
Drops below altitude 10° 18:42:31 10° 18° (NNE) 1,966 4.8 -15.3°
Sets 18:45:00 0° 5° (N) 2,873 5.8 -15.8°
